Weather in Staroye Komino

Russia / Mari El Republic     56°42′28″N   48°01′18″E
temp.,
°C
wind,
m/s
gust,
m/s
humid.,
%
clouds,
%
prec.,
mm/h
press.,
hPa
HPBL,
m
3 march, wed
wed300:00−3wsw389784 0.1 999286
03:00−3w499692 0.6 999470
06:00−5wnw51194100 0.8 1000565
09:00−4nnw61094100 1.1 1002734
12:00−5nw6988100 0.2 1003716
15:00−5wnw6987100 0.3 1004783
18:00−6wnw5989100 0.1 1004715
21:00−6w41089100 0.1 1004548
4 march, thu
thu400:00−6sw5119499 0.4 1001532
03:00−4wsw5129499 0.9 999643
06:00−4sw41195100 0.1 996452
09:00−2wsw61194100 0.9 994842
12:00−1wsw61087100 0.4 9921065
15:000w61175100 2.4 9921250
18:00−4w5138743 0.0 994511
21:00−6wnw379440 0.1 997125
5 march, fri
fri500:00−11nw33942 0.0 99853
03:00−13nnw239535 0.0 100025
06:00−16n239038 0.0 100125
09:00−13n358921 0.0 1002209
12:00−10nnw35840 0.0 1004514
15:00−9nw468748 0.0 1006635
18:00−13wnw339494 0.0 100876
21:00−15w239670 0.1 101025
6 march, sat
sat600:00−15wsw239761 0.0 101238
03:00−15sw239744 0.0 101238
06:00−17ssw339734 0.0 101148
09:00−12ssw369061 0.0 1011220
12:00−9ssw4690100 0.0 1010370
15:00−7ssw3593100 0.3 1009523
18:00−9wsw2496100 0.5 1009100
21:00−12nnw4994100 0.9 1009395
7 march, sun
sun700:00−18wnw3695100 0.1 1010112
03:00−20w2310059 0.1 101025
06:00−21sw339956 0.0 100944
09:00−16s479545 0.0 1007213
12:00−11s61193100 0.0 1005458
15:00−9s71293100 0.8 10011018
18:00−8s71493100 1.3 997959
21:00−6ssw71394100 2.3 993955